"startDT [UTC]","vpos","CH4 [ppm]","stdev(CH4) [ppm]","CO2 [ppm]","stdev(CO2) [ppm]","H2O [ppm]","stdev(H2O)","p_LGR [torr]","T_LGR [C]","mt1_LGR [us]","mt2_LGR [us]","T_ECpre [C]","T_EC1 [C]","T_EC2 [C]","p_inlet [hPa]","p_in [hPa]","p_out [hPa]","T_inlet [C]","RH_inlet [%]","dwpt_inlet [C]","T_vent [C]","RH_vent [%]","dwpt_vent [C]","flow_vent [l min-1]","flow_inlet [l min-1]","dwpt_sample [C]","T_room [C]"
2012-02-07 00:00:00,0.0,1.9123,0.0008,401.47,0.36,-0.8,1.0,138.16,28.10,24.60,36.31,0.04,-272.73,-272.74,-49,561,-926,22.2,2.2,-28.2,22.2,2.3,-27.8,5.73,2.37,-29.3,26.0
2012-02-07 00:01:00,0.0,1.9125,0.0008,401.51,0.38,-0.7,1.4,138.16,28.08,24.60,36.31,0.04,-272.74,-272.74,-49,560,-926,22.3,2.2,-28.1,22.2,2.3,-27.8,5.73,2.28,-29.2,26.3
2012-02-07 00:02:00,0.0,1.9125,0.0011,401.34,0.45,-0.9,0.4,138.15,28.07,24.60,36.32,0.04,-272.73,-272.74,-49,560,-925,22.3,2.3,-27.9,22.3,2.4,-27.6,5.73,2.40,-29.1,26.4
2012-02-07 00:03:00,0.0,1.9128,0.0010,401.45,0.42,-1.0,0.0,138.14,28.07,24.60,36.31,0.04,-272.74,-272.73,-48,560,-925,22.3,2.3,-27.7,22.3,2.4,-27.5,5.73,2.47,-29.0,26.6
2012-02-07 00:04:00,0.0,1.9132,0.0009,401.41,0.40,-0.7,1.4,138.14,28.07,24.60,36.31,0.04,-272.74,-272.74,-48,560,-925,22.3,2.3,-27.7,22.3,2.4,-27.3,5.73,2.26,-28.9,26.7
2012-02-07 00:05:00,0.0,1.9135,0.0010,401.20,0.44,1.7,8.8,138.14,28.07,24.60,36.31,0.04,-272.73,-272.74,-49,560,-925,22.3,2.4,-27.4,22.3,2.5,-27.1,5.73,2.44,-28.9,26.8
2012-02-07 00:06:00,0.0,1.9131,0.0010,401.14,0.45,0.2,6.8,138.13,28.08,24.60,36.32,0.04,-272.74,-272.74,-48,560,-925,22.3,2.4,-27.2,22.4,2.5,-26.9,5.73,2.40,-28.8,26.9
2012-02-07 00:07:00,0.0,1.9128,0.0010,401.19,0.42,0.9,7.4,138.13,28.08,24.60,36.31,0.04,-272.74,-272.73,-48,560,-925,22.4,2.5,-27.0,22.4,2.5,-26.7,5.73,2.28,-28.7,27.0
2012-02-07 00:08:00,0.0,1.9132,0.0009,401.25,0.39,7.0,16.8,138.13,28.09,24.60,36.31,0.04,-272.74,-272.74,-49,560,-925,22.4,2.5,-26.9,22.4,2.6,-26.6,5.73,2.49,-28.7,27.0
2012-02-07 00:09:00,0.0,1.9134,0.0010,401.16,0.48,5.7,14.5,138.13,28.10,24.60,36.31,0.04,-272.74,-272.73,-48,560,-925,22.4,2.5,-26.8,22.4,2.6,-26.5,5.73,2.31,-28.6,27.1
2012-02-07 00:10:00,0.0,1.9135,0.0009,401.29,0.42,9.7,15.1,138.12,28.12,24.60,36.31,0.04,-272.74,-272.73,-48,560,-925,22.4,2.6,-26.4,22.5,2.7,-26.1,5.73,2.36,-28.5,27.2
2012-02-07 00:11:00,0.0,1.9137,0.0008,401.23,0.41,7.5,14.1,138.12,28.13,24.59,36.32,0.04,-272.74,-272.74,-48,560,-925,22.5,2.6,-26.3,22.5,2.7,-25.9,5.73,2.46,-28.5,27.2
2012-02-07 00:12:00,0.0,1.9139,0.0010,401.36,0.37,14.6,19.3,138.12,28.14,24.60,36.30,0.04,-272.74,-272.74,-48,560,-925,22.5,2.5,-26.7,22.5,2.6,-26.3,5.73,2.26,-28.4,27.2
2012-02-07 00:13:00,0.0,1.9137,0.0008,401.24,0.42,15.1,21.4,138.12,28.16,24.60,36.31,0.04,-272.73,-272.73,-48,560,-925,22.5,2.5,-26.7,22.5,2.6,-26.3,5.73,2.45,-28.4,27.2
2012-02-07 00:14:00,0.0,1.9140,0.0009,401.19,0.47,23.7,26.7,138.12,28.17,24.60,36.31,0.04,-272.74,-272.74,-48,560,-925,22.5,2.5,-26.7,22.5,2.6,-26.3,5.73,2.38,-28.3,27.3
2012-02-07 00:15:00,0.0,1.9138,0.0009,401.24,0.41,19.4,22.2,138.12,28.18,24.60,36.32,0.04,-272.74,-272.74,-48,561,-925,22.5,2.5,-26.7,22.5,2.6,-26.3,5.73,2.30,-28.3,27.2
2012-02-07 00:16:00,0.0,1.9142,0.0009,401.29,0.43,20.4,23.6,138.12,28.19,24.60,36.32,0.04,-272.73,-272.74,-48,561,-925,22.5,2.5,-26.7,22.6,2.6,-26.4,5.73,2.50,-28.3,27.3
2012-02-07 00:17:00,0.0,1.9138,0.0008,401.41,0.40,17.9,22.2,138.12,28.20,24.60,36.31,0.04,-272.74,-272.74,-48,560,-925,22.5,2.5,-26.9,22.6,2.6,-26.5,5.73,2.29,-28.4,27.3
2012-02-07 00:18:00,0.0,1.9141,0.0011,401.51,0.42,15.9,21.0,138.12,28.20,24.60,36.31,0.04,-272.74,-272.74,-48,561,-924,22.5,2.5,-27.0,22.6,2.5,-26.6,5.73,2.41,-28.4,27.2
2012-02-07 00:19:00,0.0,1.9143,0.0009,401.38,0.44,13.1,22.3,138.13,28.20,24.60,36.32,0.04,-272.74,-272.73,-48,560,-924,22.5,2.4,-27.0,22.6,2.5,-26.7,5.73,2.42,-28.4,27.2
2012-02-07 00:20:00,0.0,1.9142,0.0008,401.31,0.42,12.1,19.0,138.13,28.21,24.60,36.32,0.04,-272.74,-272.74,-48,560,-926,22.5,2.4,-27.1,22.6,2.5,-26.7,5.73,2.29,-28.5,27.3
2012-02-07 00:21:00,0.0,1.9142,0.0010,401.58,0.44,10.7,20.0,138.13,28.21,24.60,36.31,0.04,-272.74,-272.74,-48,561,-925,22.5,2.4,-27.1,22.6,2.5,-26.7,5.73,2.50,-28.5,27.2
2012-02-07 00:22:00,0.0,1.9139,0.0010,401.48,0.45,10.1,17.7,138.13,28.21,24.60,36.32,0.04,-272.74,-272.74,-47,561,-926,22.5,2.4,-27.1,22.5,2.5,-26.7,5.73,2.27,-28.5,27.2
2012-02-07 00:23:00,0.0,1.9138,0.0008,401.54,0.44,8.5,17.7,138.13,28.21,24.60,36.32,0.04,-272.74,-272.73,-48,561,-926,22.5,2.4,-27.1,22.6,2.5,-26.7,5.73,2.47,-28.6,27.1
"startDT [UTC]","vpos","CH4 [ppm]","stdev(CH4) [ppm]","CO2 [ppm]","stdev(CO2) [ppm]","H2O [ppm]","stdev(H2O)","p_LGR [torr]","T_LGR [C]","mt1_LGR [us]","mt2_LGR [us]","T_ECpre [C]","T_EC1 [C]","T_EC2 [C]","p_inlet [hPa]","p_in [hPa]","p_out [hPa]","T_inlet [C]","RH_inlet [%]","dwpt_inlet [C]","T_vent [C]","RH_vent [%]","dwpt_vent [C]","flow_vent [l min-1]","flow_inlet [l min-1]","dwpt_sample [C]","T_room [C]"
2012-02-07 00:27:00,0.0,1.9142,0.0009,402.20,0.47,7.6,18.8,138.13,28.20,24.60,36.31,0.04,-272.74,-272.74,-46,561,-926,22.5,2.5,-26.9,22.5,2.5,-26.6,5.73,2.30,-28.7,27.1
2012-02-07 00:28:00,0.0,1.9142,0.0009,402.34,0.36,7.5,14.0,138.13,28.20,24.60,36.31,0.04,-272.74,-272.74,-48,560,-926,22.5,2.5,-26.9,22.5,2.5,-26.6,5.73,2.49,-28.8,27.0
2012-02-07 00:29:00,0.0,1.9137,0.0009,402.57,0.44,4.4,12.2,138.13,28.20,24.60,36.31,0.04,-272.74,-272.74,-47,561,-926,22.5,2.5,-26.9,22.5,2.6,-26.5,5.73,2.27,-28.8,27.0
2012-02-07 00:30:00,0.0,1.9141,0.0009,402.58,0.43,4.8,11.9,138.14,28.20,24.60,36.31,0.04,-272.74,-272.74,-47,560,-926,22.5,2.5,-26.8,22.5,2.6,-26.5,5.73,2.50,-28.8,27.0
2012-02-07 00:31:00,0.0,1.9135,0.0009,402.45,0.46,6.3,14.7,138.13,28.20,24.60,36.31,0.26,-270.88,-272.55,-48,560,-925,22.5,2.5,-26.9,22.5,2.6,-26.5,5.42,2.37,-32.8,27.0
2012-02-07 00:32:00,0.0,1.9137,0.0010,402.34,0.46,3.0,8.5,138.14,28.20,24.59,36.32,0.04,-272.74,-272.74,-47,560,-926,22.5,2.5,-26.9,22.5,2.6,-26.5,5.73,2.49,-28.8,26.9
2012-02-07 00:33:00,0.0,1.9138,0.0009,402.55,0.48,4.0,13.4,138.14,28.20,24.59,36.31,0.04,-272.73,-272.74,-48,560,-926,22.5,2.5,-26.9,22.5,2.6,-26.5,5.73,2.29,-28.8,27.0
2012-02-07 00:34:00,0.0,1.9134,0.0008,402.41,0.42,6.5,17.2,138.14,28.20,24.60,36.31,0.04,-272.74,-272.74,-47,561,-926,22.5,2.5,-27.0,22.5,2.6,-26.6,5.73,2.46,-28.8,27.0
2012-02-07 00:35:00,0.0,1.9137,0.0008,402.24,0.44,0.6,5.6,138.14,28.20,24.59,36.31,0.04,-272.74,-272.74,-47,560,-926,22.5,2.5,-27.0,22.5,2.5,-26.7,5.73,2.32,-28.8,27.0
2012-02-07 00:36:00,0.0,1.9134,0.0009,402.09,0.42,1.3,5.5,138.14,28.20,24.60,36.31,0.04,-272.74,-272.74,-47,560,-926,22.5,2.5,-27.0,22.5,2.5,-26.7,5.73,2.44,-28.9,27.0
2012-02-07 00:37:00,0.0,1.9137,0.0009,402.15,0.45,2.0,9.9,138.14,28.19,24.60,36.31,0.04,-272.73,-272.74,-47,560,-926,22.5,2.5,-27.0,22.5,2.5,-26.7,5.73,2.36,-28.9,27.0
2012-02-07 00:38:00,0.0,1.9142,0.0008,401.94,0.45,1.6,8.3,138.14,28.19,24.59,36.31,0.04,-272.74,-272.74,-48,560,-926,22.5,2.4,-27.0,22.5,2.5,-26.7,5.73,2.40,-28.8,26.9
2012-02-07 00:39:00,0.0,1.9146,0.0009,401.90,0.56,2.0,7.5,138.14,28.19,24.60,36.31,0.04,-272.74,-272.74,-47,560,-926,22.5,2.4,-27.1,22.4,2.5,-26.7,5.73,2.39,-28.8,26.9
2012-02-07 00:40:00,0.0,1.9148,0.0007,401.77,0.38,1.2,7.0,138.14,28.19,24.59,36.32,0.04,-272.74,-272.74,-47,560,-926,22.5,2.4,-27.1,22.4,2.5,-26.8,5.73,2.37,-28.9,26.9
2012-02-07 00:41:00,0.0,1.9143,0.0009,401.95,0.44,2.2,8.9,138.14,28.19,24.60,36.32,0.04,-272.74,-272.74,-47,560,-926,22.5,2.4,-27.1,22.4,2.5,-26.8,5.73,2.42,-28.9,26.9
2012-02-07 00:42:00,0.0,1.9147,0.0008,401.83,0.42,1.2,9.1,138.14,28.19,24.59,36.32,0.04,-272.74,-272.74,-47,560,-926,22.5,2.4,-27.1,22.4,2.5,-26.8,5.73,2.35,-28.9,26.8
2012-02-07 00:43:00,0.0,1.9150,0.0009,401.99,0.34,0.2,4.6,138.14,28.19,24.59,36.31,0.04,-272.74,-272.73,-47,560,-926,22.5,2.4,-27.1,22.4,2.5,-26.8,5.73,2.41,-28.9,26.8
2012-02-07 00:44:00,0.0,1.9147,0.0008,401.79,0.42,0.8,6.0,138.14,28.19,24.60,36.31,0.04,-272.73,-272.73,-47,560,-926,22.5,2.4,-27.1,22.4,2.5,-26.9,5.73,2.37,-28.9,26.8
2012-02-07 00:45:00,0.0,1.9145,0.0007,401.88,0.47,1.4,8.7,138.14,28.18,24.60,36.31,0.04,-272.74,-272.74,-47,560,-926,22.5,2.4,-27.1,22.4,2.5,-26.8,5.73,2.40,-28.9,26.8
2012-02-07 00:46:00,0.0,1.9147,0.0008,401.86,0.43,1.5,7.5,138.14,28.18,24.60,36.32,0.04,-272.74,-272.74,-47,560,-926,22.5,2.4,-27.1,22.4,2.5,-26.8,5.73,2.38,-28.9,26.7
2012-02-07 00:47:00,0.0,1.9145,0.0009,402.02,0.40,2.9,9.9,138.14,28.18,24.60,36.31,0.04,-272.74,-272.74,-47,560,-925,22.5,2.4,-27.1,22.4,2.5,-26.8,5.73,2.40,-28.9,26.7
2012-02-07 00:48:00,0.0,1.9144,0.0009,402.04,0.46,0.6,8.3,138.14,28.18,24.60,36.31,0.04,-272.74,-272.74,-47,560,-926,22.5,2.4,-27.1,22.4,2.5,-26.8,5.73,2.38,-28.9,26.8
2012-02-07 00:49:00,0.0,1.9146,0.0007,402.14,0.38,0.5,5.5,138.14,28.17,24.59,36.32,0.04,-272.74,-272.74,-47,560,-926,22.5,2.4,-27.1,22.4,2.5,-26.7,5.73,2.38,-28.9,26.7
2012-02-07 00:50:00,0.0,1.9147,0.0008,402.18,0.42,0.8,6.5,138.14,28.17,24.59,36.32,0.04,-272.74,-272.74,-47,560,-925,22.5,2.4,-27.0,22.4,2.5,-26.7,5.73,2.41,-28.9,26.8
2012-02-07 00:51:00,0.0,1.9141,0.0008,402.66,0.53,2.5,10.0,138.14,28.17,24.60,36.32,0.04,-272.74,-272.74,-47,560,-925,22.5,2.5,-27.0,22.4,2.5,-26.7,5.73,2.34,-28.9,26.8
2012-02-07 00:52:00,0.0,1.9139,0.0010,402.90,0.46,1.6,7.2,138.14,28.17,24.60,36.32,0.04,-272.74,-272.74,-47,560,-926,22.5,2.5,-27.0,22.4,2.5,-26.7,5.73,2.45,-28.9,26.8
2012-02-07 00:53:00,0.0,1.9146,0.0008,402.56,0.56,3.2,10.8,138.14,28.17,24.59,36.32,0.04,-272.74,-272.74,-47,560,-926,22.5,2.5,-26.9,22.4,2.6,-26.6,5.73,2.30,-28.9,26.8
2012-02-07 00:54:00,0.0,1.9143,0.0009,401.70,0.49,2.6,10.8,138.14,28.17,24.60,36.31,0.04,-272.73,-272.74,-47,560,-926,22.5,2.5,-26.8,22.4,2.6,-26.5,5.73,2.49,-28.9,26.9
2012-02-07 00:55:00,0.0,1.9142,0.0009,401.82,0.45,-0.1,3.0,138.14,28.17,24.60,36.32,0.04,-272.74,-272.74,-47,560,-926,22.5,2.5,-26.8,22.4,2.6,-26.5,5.73,2.28,-28.8,26.9
2012-02-07 00:56:00,0.0,1.9146,0.0009,401.94,0.40,2.6,9.9,138.14,28.17,24.59,36.30,0.04,-272.74,-272.74,-47,560,-926,22.5,2.5,-26.7,22.4,2.6,-26.5,5.73,2.50,-28.8,26.9
2012-02-07 00:57:00,0.0,1.9144,0.0009,401.92,0.39,0.4,4.7,138.14,28.17,24.59,36.31,0.04,-272.74,-272.74,-47,560,-926,22.6,2.5,-26.8,22.4,2.6,-26.3,5.73,2.28,-28.8,26.8
2012-02-07 00:58:00,0.0,1.9143,0.0010,401.92,0.43,1.0,6.2,138.14,28.17,24.60,36.31,0.04,-272.74,-272.74,-47,560,-926,22.6,2.5,-26.7,22.4,2.6,-26.4,5.73,2.48,-28.8,27.0
2012-02-07 00:59:00,0.0,1.9141,0.0008,402.13,0.36,1.3,8.6,138.14,28.16,24.60,36.31,0.04,-272.74,-272.74,-47,560,-926,22.5,2.5,-26.8,22.4,2.6,-26.4,5.73,2.31,-28.8,26.9
2012-02-07 01:00:00,1.0,1.8907,0.0171,386.76,10.73,2.4,9.8,138.14,28.16,24.59,36.32,0.04,-272.74,-272.74,-47,519,-926,22.5,2.5,-26.7,22.4,2.6,-26.5,5.73,2.42,-28.8,26.9
2012-02-07 01:01:00,1.0,1.8712,0.0008,374.35,0.34,2.7,9.0,138.14,28.16,24.60,36.32,0.04,-272.73,-272.74,-46,518,-926,22.6,2.5,-26.7,22.4,2.6,-26.5,5.73,2.33,-28.8,26.8
2012-02-07 01:02:00,1.0,1.8711,0.0008,374.30,0.36,6.6,17.7,138.14,28.16,24.60,36.32,0.04,-272.74,-272.74,-47,518,-925,22.5,2.5,-26.7,22.4,2.6,-26.5,5.73,2.42,-28.8,26.9
2012-02-07 01:03:00,1.0,1.8711,0.0008,374.40,0.40,3.1,9.4,138.14,28.16,24.60,36.32,0.04,-272.74,-272.74,-46,518,-926,22.5,2.5,-26.9,22.4,2.6,-26.5,5.73,2.36,-28.8,26.9
2012-02-07 01:04:00,1.0,1.8711,0.0010,374.28,0.43,3.6,10.6,138.14,28.15,24.60,36.32,0.04,-272.73,-272.74,-47,518,-926,22.5,2.5,-26.9,22.4,2.6,-26.5,5.73,2.38,-28.8,26.8
2012-02-07 01:05:00,1.0,1.8706,0.0009,374.36,0.39,7.3,14.9,138.14,28.15,24.60,36.32,0.04,-272.73,-272.74,-46,519,-926,22.5,2.5,-26.8,22.4,2.6,-26.5,5.73,2.41,-28.8,26.8
2012-02-07 01:06:00,1.0,1.8710,0.0010,374.40,0.40,5.5,11.0,138.14,28.15,24.59,36.32,0.04,-272.74,-272.74,-47,519,-926,22.6,2.5,-26.8,22.4,2.6,-26.5,5.73,2.34,-28.8,26.8
2012-02-07 01:07:00,4.0,1.8414,0.0193,381.78,4.97,9.0,16.8,138.14,28.15,24.59,36.31,0.04,-272.74,-272.74,-46,490,-926,22.5,2.5,-26.9,22.4,2.6,-26.6,5.73,2.48,-28.8,26.8
2012-02-07 01:08:00,4.0,1.8213,0.0010,387.45,0.45,2.3,9.2,138.14,28.15,24.59,36.31,0.04,-272.73,-272.74,-47,486,-926,22.5,2.5,-27.0,22.4,2.5,-26.7,5.73,2.30,-28.8,26.9
2012-02-07 01:09:00,4.0,1.8208,0.0009,387.56,0.41,5.1,11.1,138.14,28.15,24.60,36.32,0.04,-272.74,-272.74,-46,485,-926,22.5,2.4,-27.0,22.4,2.5,-26.7,5.73,2.48,-28.8,26.8
2012-02-07 01:10:00,4.0,1.8209,0.0009,387.72,0.39,7.7,17.2,138.14,28.15,24.60,36.32,0.04,-272.73,-272.74,-47,484,-926,22.5,2.4,-27.1,22.4,2.5,-26.8,5.73,2.27,-28.8,26.6
2012-02-07 01:11:00,4.0,1.8209,0.0008,387.52,0.35,3.2,8.5,138.14,28.15,24.60,36.31,0.04,-272.73,-272.74,-46,483,-926,22.5,2.4,-27.1,22.4,2.5,-26.8,5.73,2.49,-28.8,26.8
2012-02-07 01:12:00,4.0,1.8212,0.0009,387.63,0.43,6.9,14.8,138.14,28.14,24.59,36.31,0.04,-272.74,-272.74,-47,483,-926,22.5,2.4,-27.1,22.4,2.5,-26.8,5.73,2.29,-28.8,26.7
2012-02-07 01:13:00,4.0,1.8214,0.0009,387.57,0.49,9.2,18.8,138.14,28.14,24.59,36.32,0.04,-272.74,-272.74,-46,483,-926,22.6,2.4,-27.1,22.4,2.5,-26.8,5.73,2.46,-28.9,26.7
2012-02-07 01:14:00,5.0,1.7196,0.0638,364.30,14.67,0.9,7.3,138.14,28.14,24.59,36.33,0.04,-272.74,-272.73,-47,723,-926,22.6,2.4,-27.1,22.4,2.5,-26.7,5.73,2.36,-28.8,26.8
2012-02-07 01:15:00,5.0,1.6516,0.0009,348.87,0.44,-0.5,4.0,138.14,28.14,24.60,36.33,0.04,-272.74,-272.74,-47,723,-926,22.5,2.4,-27.1,22.4,2.5,-26.8,5.73,2.42,-29.0,26.8
2012-02-07 01:16:00,5.0,1.6511,0.0008,348.91,0.37,-1.0,0.0,138.14,28.14,24.60,36.34,0.04,-272.74,-272.74,-47,728,-926,22.5,2.4,-27.1,22.4,2.5,-26.8,5.73,2.38,-29.0,26.7
2012-02-07 01:17:00,5.0,1.6509,0.0009,348.94,0.33,-0.9,0.4,138.14,28.14,24.60,36.32,0.04,-272.74,-272.74,-47,736,-926,22.5,2.4,-27.0,22.3,2.5,-26.8,5.73,2.36,-29.1,26.7
2012-02-07 01:18:00,5.0,1.6515,0.0009,348.93,0.41,-1.0,0.0,138.14,28.14,24.60,36.33,0.04,-272.73,-272.74,-47,741,-925,22.5,2.5,-26.9,22.3,2.6,-26.6,5.73,2.44,-29.1,26.7
2012-02-07 01:19:00,5.0,1.6513,0.0007,348.95,0.36,-0.7,2.4,138.14,28.14,24.60,36.33,0.04,-272.74,-272.74,-47,738,-926,22.5,2.5,-26.8,22.3,2.6,-26.5,5.73,2.30,-29.2,26.6
2012-02-07 01:20:00,5.0,1.6513,0.0008,348.88,0.42,-1.0,0.0,138.14,28.14,24.59,36.33,0.04,-272.74,-272.74,-47,733,-926,22.5,2.5,-26.8,22.3,2.6,-26.4,5.73,2.48,-29.2,26.6
2012-02-07 01:21:00,2.0,1.7673,0.0747,374.82,16.80,2.6,12.4,138.14,28.14,24.59,36.32,0.04,-272.73,-272.74,-46,471,-925,22.4,2.5,-26.7,22.3,2.6,-26.4,5.73,2.27,-29.3,26.5
2012-02-07 01:22:00,2.0,1.8465,0.0009,393.04,0.41,2.1,9.4,138.14,28.14,24.60,36.32,0.04,-272.74,-272.74,-47,472,-925,22.4,2.5,-26.7,22.3,2.7,-26.3,5.73,2.49,-29.2,26.5
2012-02-07 01:23:00,2.0,1.8469,0.0009,393.24,0.38,4.0,13.4,138.14,28.13,24.60,36.31,0.04,-272.74,-272.74,-47,473,-925,22.4,2.5,-26.7,22.2,2.6,-26.4,5.73,2.29,-29.3,26.4
2012-02-07 01:24:00,2.0,1.8470,0.0010,393.34,0.43,2.1,7.9,138.14,28.13,24.60,36.32,0.04,-272.73,-272.74,-46,473,-925,22.4,2.5,-26.7,22.2,2.6,-26.4,5.73,2.45,-29.3,26.5
2012-02-07 01:25:00,2.0,1.8472,0.0009,393.31,0.42,2.9,10.8,138.14,28.13,24.59,36.31,0.04,-272.74,-272.74,-47,473,-925,22.4,2.5,-26.7,22.2,2.7,-26.4,5.73,2.36,-29.4,26.5
2012-02-07 01:26:00,2.0,1.8473,0.0011,393.30,0.38,1.2,6.9,138.14,28.13,24.59,36.31,0.04,-272.74,-272.74,-46,475,-925,22.4,2.5,-26.7,22.2,2.7,-26.4,5.73,2.38,-29.4,26.5
2012-02-07 01:27:00,2.0,1.8471,0.0009,393.42,0.49,0.5,6.5,138.14,28.13,24.59,36.30,0.04,-272.74,-272.74,-46,474,-924,22.3,2.5,-26.8,22.2,2.6,-26.4,5.73,2.43,-29.4,26.4
2012-02-07 01:28:00,0.0,1.8868,0.0266,398.00,3.19,-0.4,3.1,138.14,28.12,24.59,36.31,0.04,-272.73,-272.74,-47,559,-925,22.3,2.6,-26.7,22.1,2.6,-26.4,5.73,2.30,-29.5,26.4
2012-02-07 01:29:00,0.0,1.9163,0.0009,401.47,0.45,-1.0,0.0,138.14,28.12,24.59,36.31,0.04,-272.74,-272.74,-47,559,-925,22.3,2.5,-26.8,22.1,2.6,-26.4,5.73,2.46,-29.6,26.5
2012-02-07 01:30:00,0.0,1.9158,0.0010,401.46,0.40,-0.9,0.7,138.14,28.12,24.60,36.31,0.04,-272.74,-272.74,-46,559,-925,22.3,2.5,-26.7,22.1,2.6,-26.4,5.73,2.31,-29.6,26.6
2012-02-07 01:31:00,0.0,1.9163,0.0009,401.58,0.43,-0.1,4.5,138.14,28.11,24.59,36.31,0.04,-272.73,-272.73,-47,559,-925,22.3,2.5,-26.8,22.1,2.7,-26.4,5.73,2.50,-29.7,26.5
2012-02-07 01:32:00,0.0,1.9167,0.0010,401.48,0.45,-1.0,0.0,138.14,28.11,24.59,36.31,0.04,-272.74,-272.74,-46,559,-925,22.3,2.5,-26.8,22.1,2.6,-26.4,5.73,2.29,-29.7,26.6
2012-02-07 01:33:00,0.0,1.9168,0.0010,401.50,0.41,-0.8,1.3,138.14,28.11,24.59,36.30,0.04,-272.74,-272.74,-48,560,-925,22.3,2.5,-26.8,22.1,2.7,-26.4,5.73,2.51,-29.7,26.6
2012-02-07 01:34:00,0.0,1.9170,0.0010,401.47,0.49,-0.9,1.1,138.14,28.11,24.60,36.30,0.04,-272.74,-272.74,-44,558,-925,22.3,2.5,-26.9,22.1,2.6,-26.5,5.73,2.28,-29.7,26.6
2012-02-07 01:35:00,0.0,1.9172,0.0008,401.43,0.40,-0.1,4.9,138.14,28.10,24.59,36.31,0.04,-272.74,-272.74,-47,559,-925,22.3,2.5,-26.9,22.1,2.6,-26.6,5.73,2.51,-29.8,26.7
2012-02-07 01:36:00,0.0,1.9171,0.0009,401.37,0.49,-0.2,4.4,138.14,28.10,24.59,36.31,0.04,-272.73,-272.74,-46,559,-925,22.3,2.5,-26.9,22.1,2.6,-26.5,5.73,2.28,-29.8,26.7
2012-02-07 01:37:00,0.0,1.9175,0.0009,401.51,0.42,-0.7,2.4,138.14,28.10,24.59,36.30,0.04,-272.73,-272.74,-47,558,-925,22.3,2.5,-26.9,22.1,2.6,-26.6,5.73,2.50,-29.8,26.7
2012-02-07 01:38:00,0.0,1.9178,0.0012,401.58,0.32,-0.6,2.7,138.14,28.10,24.59,36.30,0.04,-272.74,-272.74,-46,559,-925,22.2,2.5,-27.0,22.1,2.6,-26.6,5.73,2.29,-29.8,26.8
2012-02-07 01:39:00,0.0,1.9176,0.0009,401.40,0.49,-1.0,0.3,138.14,28.10,24.59,36.31,0.04,-272.74,-272.74,-47,558,-925,22.2,2.5,-27.1,22.1,2.6,-26.7,5.73,2.50,-29.9,26.7
2012-02-07 01:40:00,0.0,1.9176,0.0009,401.60,0.50,-0.7,2.1,138.14,28.09,24.59,36.31,0.04,-272.74,-272.74,-46,558,-925,22.2,2.5,-27.1,22.1,2.6,-26.7,5.73,2.29,-29.9,26.8
2012-02-07 01:41:00,0.0,1.9175,0.0009,401.47,0.39,-0.8,1.2,138.14,28.09,24.59,36.31,0.04,-272.73,-272.74,-46,558,-926,22.2,2.5,-27.1,22.0,2.6,-26.7,5.73,2.50,-29.9,26.8
2012-02-07 01:42:00,0.0,1.9175,0.0010,401.58,0.42,-0.4,3.6,138.14,28.09,24.59,36.30,0.04,-272.74,-272.74,-46,558,-925,22.2,2.5,-27.2,22.0,2.6,-26.8,5.73,2.30,-29.9,26.8
2012-02-07 01:43:00,0.0,1.9176,0.0009,401.61,0.48,-0.7,1.6,138.14,28.08,24.59,36.30,0.04,-272.74,-272.73,-46,558,-925,22.2,2.5,-27.2,22.0,2.6,-26.9,5.73,2.49,-30.0,26.7
2012-02-07 01:44:00,0.0,1.9172,0.0009,402.02,0.54,-1.0,0.0,138.14,28.08,24.59,36.30,0.04,-272.73,-272.74,-47,558,-925,22.2,2.4,-27.3,22.0,2.5,-27.0,5.73,2.32,-30.0,26.7
2012-02-07 01:45:00,0.0,1.9170,0.0011,402.24,0.35,-1.0,0.0,138.14,28.08,24.59,36.30,0.04,-272.74,-272.73,-46,558,-925,22.2,2.4,-27.3,22.0,2.5,-27.0,5.73,2.47,-30.0,26.6
2012-02-07 01:46:00,0.0,1.9163,0.0008,402.72,0.53,-0.9,0.5,138.14,28.08,24.59,36.30,0.04,-272.74,-272.74,-47,557,-925,22.1,2.4,-27.4,22.0,2.5,-27.0,5.73,2.33,-30.0,26.6
2012-02-07 01:47:00,0.0,1.9166,0.0010,403.33,0.45,-0.6,2.3,138.14,28.08,24.59,36.29,0.04,-272.73,-272.74,-46,558,-925,22.1,2.4,-27.5,22.0,2.5,-27.1,5.73,2.46,-30.0,26.6
2012-02-07 01:48:00,0.0,1.9157,0.0009,403.33,0.60,-1.0,0.0,138.14,28.07,24.60,36.30,0.04,-272.74,-272.73,-47,558,-925,22.1,2.4,-27.5,21.9,2.5,-27.1,5.73,2.33,-30.0,26.5
2012-02-07 01:49:00,0.0,1.9178,0.0011,404.41,0.53,-0.7,2.7,138.14,28.07,24.59,36.30,0.04,-272.74,-272.74,-46,558,-925,22.1,2.4,-27.6,21.9,2.5,-27.2,5.73,2.47,-30.1,26.5
2012-02-07 01:50:00,0.0,1.9182,0.0011,403.36,0.54,0.7,8.2,138.14,28.07,24.59,36.30,0.04,-272.74,-272.74,-46,558,-925,22.1,2.4,-27.7,21.9,2.5,-27.4,5.73,2.33,-30.1,26.5
2012-02-07 01:51:00,0.0,1.9175,0.0009,403.06,0.45,-1.0,0.0,138.14,28.07,24.59,36.30,0.04,-272.73,-272.74,-46,558,-925,22.1,2.4,-27.7,21.9,2.5,-27.4,5.73,2.46,-30.1,26.4
2012-02-07 01:52:00,0.0,1.9175,0.0010,402.66,0.43,-0.2,6.3,138.14,28.07,24.59,36.30,0.04,-272.74,-272.74,-46,558,-925,22.1,2.3,-27.8,21.9,2.4,-27.5,5.73,2.34,-30.1,26.4
2012-02-07 01:53:00,0.0,1.9178,0.0009,403.11,0.63,-1.0,0.0,138.14,28.06,24.59,36.30,0.04,-272.74,-272.74,-46,557,-925,22.1,2.3,-27.9,21.9,2.4,-27.5,5.73,2.45,-30.1,26.5
2012-02-07 01:54:00,0.0,1.9182,0.0009,403.87,0.45,-1.0,0.0,138.14,28.06,24.59,36.30,0.04,-272.74,-272.74,-46,558,-925,22.1,2.3,-27.9,21.9,2.4,-27.6,5.73,2.34,-30.2,26.6
2012-02-07 01:55:00,0.0,1.9173,0.0008,403.38,0.51,-0.7,2.4,138.14,28.06,24.59,36.30,0.04,-272.74,-272.74,-46,557,-925,22.1,2.3,-28.0,21.9,2.4,-27.7,5.73,2.46,-30.1,26.6
2012-02-07 01:56:00,0.0,1.9170,0.0010,402.60,0.47,-1.0,0.0,138.14,28.06,24.59,36.30,0.04,-272.74,-272.74,-46,558,-925,22.1,2.3,-28.0,21.9,2.4,-27.8,5.73,2.33,-30.2,26.5
2012-02-07 01:57:00,0.0,1.9172,0.0010,402.58,0.39,-1.0,0.0,138.14,28.06,24.59,36.31,0.04,-272.74,-272.74,-46,558,-925,22.1,2.3,-28.0,21.9,2.4,-27.8,5.73,2.48,-30.1,26.5
2012-02-07 01:58:00,0.0,1.9177,0.0010,402.76,0.43,-0.8,1.3,138.14,28.06,24.59,36.30,0.04,-272.74,-272.74,-46,557,-925,22.1,2.3,-28.1,21.9,2.4,-27.8,5.73,2.31,-30.1,26.6
2012-02-07 01:59:00,0.0,1.9180,0.0008,403.26,0.46,-1.0,0.0,138.14,28.05,24.59,36.30,0.04,-272.74,-272.74,-46,558,-926,22.1,2.3,-28.2,21.9,2.4,-27.8,5.73,2.49,-30.2,26.6
2012-02-07 02:00:00,0.0,1.9184,0.0011,403.44,0.51,-1.0,0.0,138.15,28.05,24.59,36.30,0.04,-272.74,-272.74,-46,558,-926,22.1,2.3,-28.2,21.9,2.3,-27.9,5.73,2.30,-30.1,26.6
2012-02-07 02:01:00,0.0,1.9184,0.0010,404.09,0.60,-0.5,3.7,138.14,28.05,24.59,36.30,0.04,-272.73,-272.74,-46,557,-926,22.1,2.2,-28.3,21.9,2.3,-27.9,5.73,2.49,-30.0,26.8
2012-02-07 02:02:00,0.0,1.9178,0.0010,403.32,0.59,-0.6,2.2,138.14,28.05,24.59,36.31,0.04,-272.74,-272.74,-46,557,-926,22.1,2.2,-28.2,21.9,2.3,-27.8,5.73,2.30,-29.9,27.0
2012-02-07 02:03:00,0.0,1.9191,0.0010,403.78,0.46,-0.9,0.5,138.14,28.06,24.59,36.31,0.04,-272.74,-272.74,-46,558,-926,22.2,2.2,-28.2,22.0,2.3,-27.9,5.73,2.50,-29.8,27.2
2012-02-07 02:04:00,0.0,1.9199,0.0010,404.54,0.64,-0.7,1.9,138.14,28.06,24.59,36.31,0.04,-272.74,-272.74,-46,558,-926,22.2,2.2,-28.2,22.1,2.3,-27.9,5.73,2.29,-29.7,27.3
2012-02-07 02:05:00,0.0,1.9205,0.0011,404.42,0.42,1.0,11.2,138.14,28.06,24.59,36.30,0.04,-272.74,-272.74,-46,558,-926,22.3,2.2,-28.3,22.1,2.3,-27.8,5.73,2.50,-29.6,27.4
2012-02-07 02:06:00,0.0,1.9204,0.0008,403.89,0.49,1.7,8.4,138.13,28.07,24.60,36.31,0.04,-272.74,-272.74,-46,558,-926,22.3,2.2,-28.3,22.2,2.3,-27.9,5.73,2.28,-29.5,27.5
2012-02-07 02:07:00,0.0,1.9206,0.0011,403.23,0.50,1.2,9.9,138.13,28.08,24.59,36.30,0.04,-272.74,-272.74,-47,559,-926,22.4,2.2,-28.4,22.2,2.3,-28.0,5.73,2.50,-29.4,27.6
2012-02-07 02:08:00,0.0,1.9209,0.0010,403.38,0.50,4.0,12.0,138.13,28.09,24.59,36.30,0.04,-272.74,-272.74,-46,559,-926,22.4,2.2,-28.3,22.3,2.3,-27.9,5.73,2.27,-29.3,27.6
2012-02-07 02:09:00,0.0,1.9213,0.0008,402.59,0.50,6.0,15.4,138.13,28.09,24.59,36.31,0.04,-272.74,-272.74,-46,559,-927,22.5,2.2,-28.4,22.3,2.3,-28.0,5.73,2.50,-29.2,27.7
2012-02-07 02:10:00,0.0,1.9209,0.0008,402.47,0.40,2.7,8.2,138.13,28.10,24.59,36.31,0.04,-272.74,-272.74,-46,560,-926,22.5,2.2,-28.4,22.4,2.2,-28.0,5.73,2.29,-29.1,27.7
2012-02-07 02:11:00,0.0,1.9203,0.0010,402.01,0.43,6.8,16.6,138.13,28.11,24.59,36.31,0.04,-272.74,-272.74,-47,560,-926,22.5,2.1,-28.5,22.4,2.2,-28.1,5.73,2.47,-29.0,27.8
2012-02-07 02:12:00,0.0,1.9205,0.0011,402.24,0.43,6.1,15.0,138.13,28.12,24.59,36.31,0.04,-272.74,-272.74,-47,560,-926,22.6,2.1,-28.5,22.4,2.2,-28.1,5.73,2.34,-29.0,27.8
2012-02-07 02:13:00,0.0,1.9204,0.0010,402.17,0.40,6.6,14.1,138.13,28.13,24.60,36.31,0.04,-272.74,-272.74,-45,559,-924,22.6,2.1,-28.5,22.5,2.2,-28.2,5.73,2.39,-28.9,27.9
2012-02-07 02:14:00,0.0,1.9200,0.0009,402.06,0.41,13.9,22.1,138.13,28.14,24.60,36.31,0.04,-272.74,-272.74,-47,561,-927,22.7,2.1,-28.5,22.5,2.2,-28.1,5.73,2.43,-28.7,27.9
2012-02-07 02:15:00,0.0,1.9199,0.0008,401.86,0.45,11.6,18.3,138.12,28.14,24.59,36.31,0.04,-272.73,-272.74,-47,561,-926,22.7,2.1,-28.6,22.6,2.2,-28.1,5.73,2.31,-28.7,28.0
2012-02-07 02:16:00,0.0,1.9199,0.0009,401.70,0.39,15.2,26.2,138.12,28.16,24.59,36.32,0.04,-272.74,-272.74,-47,561,-926,22.7,2.1,-28.6,22.6,2.2,-28.1,5.73,2.48,-28.6,28.1
2012-02-07 02:17:00,0.0,1.9199,0.0008,401.69,0.41,15.1,24.2,138.12,28.17,24.59,36.32,0.04,-272.74,-272.74,-47,562,-927,22.8,2.1,-28.5,22.7,2.2,-28.2,5.73,2.27,-28.5,28.1
2012-02-07 02:18:00,0.0,1.9191,0.0008,401.60,0.55,20.6,21.6,138.12,28.18,24.59,36.32,0.04,-272.74,-272.74,-47,562,-927,22.8,2.1,-28.5,22.7,2.2,-28.2,5.73,2.50,-28.4,28.1
2012-02-07 02:19:00,0.0,1.9193,0.0008,401.66,0.42,23.2,23.2,138.12,28.19,24.59,36.31,0.04,-272.74,-272.74,-47,563,-927,22.9,2.1,-28.5,22.7,2.2,-28.1,5.73,2.28,-28.4,28.1